Flag for Moldova Weather past 2 weeks in Tiraspol, Moldova

Now
59 °F

Clear.


Feels Like: 58 °F
Forecast: 62 / 74 °F
Wind: 6 mph from South

Location: Chisinau International Airport

Current Time: Sep 21, 2014 at 3:46:07 AM

Latest Report: Sep 21, 2014 at 3:00 AM


Visibility: 10 mi

Pressure: 30.01 "Hg

Humidity: 72%

Dew point: 50 °F

Location of TiraspolLocation

Historic Weather in Tiraspol — Graph

°F

Tiraspol temperature yesterday

Maximum temperature yesterday: 77 °F (at 3:30 PM)
Minimum temperature yesterday: 36 °F (at 6:30 AM)
Average temperature yesterday: 56 °F

Past Weeks' High & Low Weather Summary

 TemperatureHumidityPressure
High84 °F (Sep 10, 3:00 PM)88% (Sep 13, 4:30 AM)30.30 "Hg (Sep 13, 4:30 AM)
Low36 °F (Sep 20, 6:30 AM)13% (Sep 19, 5:00 PM)29.89 "Hg (Sep 6, 3:30 PM)
Average65 °F47%30.06 "Hg
* Reported Sep 6 2:00 AM — Sep 21 2:30 AM, Tiraspol, Weather by CustomWeather, © 2014

Note: Actual official high and low records may vary slightly from our data, if they occured in-between our weather recording intervals... More about our weather records

Advertising

Tiraspol weather history for previous 24 hours

 ConditionsComfort  
Time TempWeatherWind HumidityBarometerVisibility
2:30 AM
Sep 21
59 °FClear.7 mph68%30.01 "Hg10 mi
2:00 AM59 °FClear.5 mph68%30.01 "Hg10 mi
1:30 AM59 °FClear.7 mph68%30.01 "Hg10 mi
1:00 AM61 °FClear.8 mph63%30.01 "Hg10 mi
12:30 AM61 °FClear.9 mph63%30.01 "Hg10 mi
12:00 AM61 °FClear.10 mph59%30.04 "Hg10 mi
11:30 PM
Sep 20
61 °FClear.12 mph59%30.04 "Hg10 mi
11:00 PM63 °FClear.9 mph59%30.04 "Hg10 mi
10:30 PM63 °FPassing clouds.13 mph59%30.04 "HgN/A
10:00 PM64 °FClear.14 mph52%30.04 "Hg10 mi
9:30 PM64 °FClear.13 mph52%30.04 "Hg10 mi
9:00 PM66 °FClear.14 mph49%30.04 "Hg10 mi
4:30 PM75 °FPassing clouds.12 mph18%30.07 "HgN/A
4:00 PM77 °FPassing clouds.12 mph18%30.07 "HgN/A
3:30 PM77 °FPassing clouds.12 mph19%30.07 "HgN/A
3:00 PM75 °FPassing clouds.10 mph19%30.07 "HgN/A
2:30 PM75 °FPassing clouds.9 mph21%30.09 "HgN/A
2:00 PM75 °FPassing clouds.10 mph19%30.09 "HgN/A
1:30 PM75 °FPassing clouds.9 mph18%30.09 "HgN/A
1:00 PM73 °FPassing clouds.8 mph17%30.12 "HgN/A
12:30 PM72 °FPassing clouds.9 mph19%30.12 "HgN/A
12:00 PM72 °FPassing clouds.9 mph17%30.15 "HgN/A
11:30 AM68 °FPassing clouds.7 mph28%30.15 "HgN/A
11:00 AM64 °FSunny.5 mph30%30.15 "Hg10 mi
10:30 AM59 °FSunny.2 mph36%30.18 "Hg10 mi
10:00 AM55 °FPassing clouds.3 mph41%30.18 "HgN/A
9:30 AM50 °FSunny.2 mph54%30.18 "Hg10 mi
9:00 AM46 °FPassing clouds.3 mph66%30.18 "HgN/A
8:30 AM43 °FSunny.No wind71%30.18 "Hg10 mi
8:00 AM39 °FSunny.No wind70%30.18 "Hg10 mi
7:30 AM37 °FClear.No wind75%30.18 "Hg10 mi
7:00 AM39 °FClear.No wind75%30.18 "Hg10 mi
6:30 AM36 °FClear.No wind75%30.18 "Hg10 mi
6:00 AM37 °FClear.No wind75%30.18 "Hg10 mi
5:30 AM41 °FClear.No wind70%30.18 "Hg10 mi
5:00 AM37 °FClear.No wind75%30.18 "Hg10 mi
4:00 AM43 °FClear.No wind71%30.18 "Hg10 mi
3:30 AM39 °FClear.No wind70%30.18 "Hg10 mi
3:00 AM41 °FClear.2 mph66%30.18 "Hg10 mi
Weather by CustomWeather, © 2014

See weather overviewHow to use our weather pages